Location: Altavilla Irpina
(41.0000°N, 14.7833°E)
Time: 18:39:04
(UTC+00:00)

Daily predictions for brighter satellites

Satellite Brightness Start Highest point End
(mag) Time Altitude Azimuth Time Altitude Azimuth Time Altitude Azimuth
Cosmos 1833 Rocket 3.9 18:40:48 10° SE 18:44:47 20° E 18:48:47 10° NE
CZ-4B R/B 3.8 18:41:29 10° SE 18:45:09 33° ENE 18:48:43 10° N
Cosmos 1726 Rocket 4.1 18:44:35 10° SSE 18:48:41 38° E 18:52:46 10° NNE
Cosmos 1782 3.0 18:45:26 10° SSE 18:48:55 43° E 18:52:26 10° NNE
DELTA 2 R/B (1) 4.4 18:45:08 10° SSW 18:49:50 29° SSE 18:54:34 10° E
CZ-4 R/B 1.5 18:48:22 10° S 18:52:18 74° WSW 18:56:16 10° NNW
Cosmos 1937 Rocket 3.6 18:47:40 10° NNW 18:52:50 77° WSW 18:57:56 10° SSE
SL-08 R/B 3.7 18:54:43 10° N 18:59:35 73° WNW 19:04:21 10° SSW
Okean 1-7 Rocket 3.6 18:57:22 10° N 19:01:45 84° W 19:06:07 10° S
CZ-2C R/B 4.2 19:00:26 10° SSW 19:03:24 30° W 19:06:26 10° NNW
Cosmos 2058 Rocket 4.1 19:00:13 10° SSE 19:04:02 28° E 19:07:50 10° NNE
USA 186 1.6 19:02:09 10° S 19:04:51 71° WSW 19:07:36 10° NNW
Cosmos 1825 Rocket 3.5 19:02:14 10° N 19:06:31 64° E 19:10:46 10° SSE
PAYLOAD B 4.4 19:04:23 10° S 19:09:57 77° WSW 19:15:35 10° NNW
Geosat 4.1 19:05:01 10° NNE 19:10:02 84° WNW 19:15:02 10° SSW
Cosmos 1602 Rocket 4.4 19:06:35 10° NNW 19:10:46 50° W 19:14:55 10° SSW
Cosmos 1980 Rocket 4.5 19:10:17 10° NE 19:10:58 10° NE 19:11:41 10° NE
USA 234 3.3 19:07:46 10° NE 19:14:14 61° SE 19:20:40 10° SSW
Resurs 01 Rocket 3.5 19:10:39 10° SSW 19:14:29 30° W 19:18:21 10° NW
Helios 1A 3.2 19:11:02 10° NNE 19:14:55 44° E 19:18:45 10° S
Terra 2.7 19:11:25 13° SE 19:15:07 34° ENE 19:19:21 10° N
Cosmos 2151 3.0 19:11:54 10° N 19:16:06 79° W 19:20:16 10° S
Helios 1B rocket 2.1 19:13:47 10° SSE 19:17:26 87° ENE 19:21:08 10° NNW
ATLAS CENTAUR R/B 1.1 19:14:41 10° SSW 19:18:13 56° ESE 19:21:54 10° NE
Cosmos 2344 4.3 19:12:28 10° SW 19:20:08 55° NW 19:27:13 10° NNE
MOS 1-B 4.4 19:16:32 10° SSE 19:22:18 72° ENE 19:28:05 10° N
Cosmos 1295 Rocket 4.4 19:16:12 10° N 19:22:20 77° E 19:28:24 10° S
Cosmos 1606 Rocket 4.2 19:19:24 10° SSW 19:23:46 60° W 19:28:11 10° N
CZ-4B R/B 3.5 19:21:39 10° S 19:27:10 71° WSW 19:32:37 10° NNW
BlueWalker 3 4.1 19:30:13 10° NNW 19:32:48 18° NNE 19:35:23 10° ENE
Cosmos 1400 Rocket 2.5 19:30:05 10° S 19:33:45 82° E 19:37:26 10° NNE
Meteor 1-20 Rocket 4.4 19:29:31 10° NNW 19:35:20 80° W 19:41:10 10° S
CZ-4B R/B 3.9 19:33:00 10° S 19:37:41 58° WSW 19:42:27 10° NNW
Cosmos 1346 Rocket 3.6 19:35:18 10° NNE 19:38:36 30° ENE 19:39:57 23° ESE
Ariane Rocket 4.3 19:36:54 17° ESE 19:39:35 26° ENE 19:43:42 10° NNE
CZ-4C R/B 3.1 19:32:46 10° NW 19:40:12 88° SW 19:47:14 18° SSE
Cosmos 1570 Rocket 4.5 19:39:21 15° SSE 19:43:13 39° ESE 19:48:05 10° NE
Cosmos 1953 Rocket 3.6 19:39:06 10° N 19:43:34 84° W 19:47:08 16° S
Cosmos 1697 Rocket 3.6 19:39:06 10° N 19:44:17 35° ENE 19:47:33 19° ESE
SPOT 5 3.6 19:45:30 10° S 19:49:40 43° W 19:53:47 10° NNW
Meteor 1-25 Rocket 4.3 19:44:46 10° NNW 19:50:19 76° W 19:55:07 14° S
Cosmos 2074 Rocket 4.4 19:44:42 10° NNW 19:50:50 64° W 19:56:56 10° S
Lacrosse 5 rocket 2.5 19:47:52 10° NNW 19:50:54 26° NE 19:52:35 18° ENE
Cosmos-2242 2.9 19:51:08 20° S 19:54:00 66° E 19:58:15 10° NNE
Nadezhda 1 Rocket 4.0 19:47:58 10° S 19:54:03 84° W 20:00:14 10° N
Alouette 2 Rocket 4.4 19:54:49 10° NNW 19:58:28 46° W 20:02:45 12° S
SeaSat 1 4.3 19:57:02 13° E 19:59:41 19° NE 20:03:05 10° N
Cosmos 1656 3.9 19:54:37 10° NNW 20:00:13 66° WSW 20:03:55 21° S
Cosmos 2082 Rocket 3.5 20:00:19 19° E 20:00:23 19° E 20:04:16 10° NE
Cosmos 2154 Rocket 4.3 19:54:37 10° NNW 20:00:44 64° W 20:06:34 11° S
Okean O Rocket 2.4 19:57:22 14° S 20:00:56 47° W 20:05:09 10° NNW
Cosmos 1933 4.2 19:57:24 10° SSW 20:01:08 47° W 20:04:52 10° N
Cosmos 2221 3.9 20:01:06 20° E 20:01:08 20° E 20:04:14 10° NE
Cosmos 2341 Rocket 4.4 19:57:18 10° N 20:03:19 48° ENE 20:06:24 27° SE
SPOT 3 Rocket 3.9 20:02:59 28° SE 20:05:19 47° ENE 20:10:13 10° N
Okean-O 3.0 20:03:33 20° S 20:06:26 59° W 20:10:46 10° NNW
Iridium 4 Rocket 4.1 20:03:07 10° N 20:08:13 60° W 20:13:16 12° SSW
ERS-1 Rocket 3.3 20:04:49 18° S 20:08:25 61° W 20:13:24 10° NNW
Cosmos 773 Rocket 4.4 20:11:34 33° SE 20:12:52 39° ESE 20:17:36 10° NE
Cosmos 1743 3.7 20:16:44 10° NNW 20:19:55 36° W 20:21:21 24° SW
Spot 2 Rocket 3.5 20:17:40 30° S 20:20:12 81° WSW 20:25:15 10° NNW
Cosmos 2084 Rocket 3.3 20:16:09 10° SSW 20:20:26 87° ESE 20:24:41 10° NE
ISS -1.3 20:18:56 10° NNW 20:21:25 19° NNE 20:23:18 13° ENE
NOSS 3-1 (C) 3.0 20:17:42 10° SW 20:22:18 74° NW 20:27:47 10° NNE
Cosmos 1833 Rocket 3.3 20:22:40 10° SW 20:28:11 56° WNW 20:33:45 10° NNE
Cosmos 1356 Rocket 3.2 20:28:39 52° S 20:29:34 78° E 20:33:41 10° NNE
SL-24 R/B 4.4 20:30:54 48° S 20:32:01 81° WSW 20:36:09 10° NNW
DELTA 2 R/B (1) 3.5 20:30:14 10° WSW 20:35:43 66° SSE 20:38:25 30° E
Cosmos 1733 3.1 20:33:12 10° NNW 20:36:07 55° W 20:36:07 55° W
USA 245 4.1 20:35:19 36° SSW 20:36:40 52° W 20:41:23 10° NNW
Cosmos 1821 Rocket 4.3 20:32:51 10° N 20:38:44 47° ENE 20:40:29 37° ESE
Cosmos 1900 4.3 20:37:01 10° NNW 20:42:10 89° SW 20:43:28 52° SSE
Cosmos 2218 Rocket 3.9 20:37:10 10° N 20:43:34 81° E 20:46:01 40° SSE
PSLV R/B 4.1 20:49:41 46° W 20:49:41 46° W 20:52:33 10° NNW
Cosmos 1812 Rocket 3.5 20:48:57 55° SSW 20:49:49 76° W 20:54:08 10° N
Cosmos 1805 4.3 20:48:24 10° N 20:50:42 30° NE 20:50:42 30° NE
NOSS 3-1 (A) 2.7 20:50:27 46° SSW 20:51:52 79° ESE 20:57:18 10° NE
Terra 3.6 20:50:03 15° SW 20:52:41 24° W 20:56:30 10° NW
ATLAS CENTAUR R/B 4.3 20:52:32 10° WNW 20:54:42 15° NW 20:56:55 10° N
Cosmos 1315 Rocket 2.7 20:55:12 74° W 20:55:19 75° W 20:59:12 10° N
Cosmos 1980 Rocket 2.4 20:50:39 10° NNW 20:56:11 59° ENE 20:57:27 47° ESE
USA 234 4.4 20:50:57 10° NE 20:57:04 45° NNW 21:03:11 10° W
Cosmos 2208 Rocket 4.5 20:55:03 21° SW 20:58:40 60° WNW 21:03:58 10° NNE
Cosmos 2181 Rocket 4.0 20:58:42 35° SSW 21:01:31 80° W 21:07:54 10° N
Cosmos 1959 Rocket 4.5 20:55:19 10° N 21:01:31 78° W 21:03:44 43° S
SL-16 R/B 4.1 21:03:04 10° N 21:06:59 19° NE 21:09:15 15° E
Cosmos 783 Rocket 4.4 21:06:53 63° ESE 21:07:04 63° ESE 21:12:13 10° NNE
DELTA 2 DEB (DPAF) 4.0 21:05:31 10° NNE 21:09:02 70° N 21:09:02 70° N
Meteor 1-11 Rocket 4.1 21:05:01 10° N 21:10:19 46° ENE 21:10:57 44° E
BlueWalker 3 2.6 21:07:23 10° NW 21:10:12 50° NW 21:10:12 50° NW
Meteor 2-10 4.3 21:07:03 10° NNW 21:12:39 66° W 21:13:58 50° SSW
Cosmos 2322 Rocket 4.5 21:12:55 10° NNE 21:15:41 14° NE 21:18:27 10° ENE
Ariane Rocket 4.0 21:16:59 32° SW 21:18:15 38° W 21:22:58 10° NNW
Cosmos 1238 Rocket 4.0 21:22:13 34° WNW 21:22:13 34° WNW 21:25:17 10° NNW
Meteor 1-14 Rocket 4.2 21:17:12 10° NNW 21:22:49 76° W 21:23:50 60° SSW
Nadezhda 3 Rocket 3.9 21:21:58 59° SSE 21:23:07 76° E 21:29:21 10° N
ARIANE 5 R/B 3.8 21:23:51 30° ENE 21:23:51 30° ENE 21:27:17 10° N
Cosmos 44 4.1 21:21:03 10° NW 21:25:13 38° WSW 21:25:13 38° WSW
Cosmos 2298 Rocket 4.1 21:22:12 10° NNW 21:27:29 65° WSW 21:27:57 62° SW
Cosmos 1697 Rocket 3.7 21:23:07 10° NW 21:28:09 34° WSW 21:29:17 31° SW
Lacrosse 5 rocket 3.2 21:25:12 10° WNW 21:26:34 19° WNW 21:26:34 19° WNW
ATLAS 3B R/B 2.9 21:30:07 51° SE 21:30:57 54° ESE 21:38:25 10° NE
USA 229 DEB 4.5 21:33:23 30° E 21:33:23 30° E 21:37:39 10° NE
USA 229 4.5 21:33:31 29° E 21:33:31 29° E 21:37:43 10° NE
Cosmos 1934 Rocket 4.3 21:28:36 10° N 21:34:43 52° ENE 21:35:32 49° ESE
Cosmos 2360 Rocket 4.3 21:32:09 10° N 21:35:32 16° NE 21:38:04 12° ENE
Cosmos 1339 Rocket 4.3 21:35:54 63° SE 21:36:27 66° E 21:42:27 10° NNE
SeaSat 1 2.5 21:36:40 66° WSW 21:36:40 66° WSW 21:41:30 10° NNW
Cosmos 2221 3.9 21:37:29 28° W 21:38:03 29° WNW 21:41:42 10° NNW
Cosmos 1536 3.9 21:34:45 10° NNW 21:37:32 39° NW 21:37:32 39° NW
Cosmos 2369 3.5 21:35:26 10° NNW 21:41:07 86° ENE 21:41:29 79° SE
Cosmos 1867 4.5 21:36:21 10° NW 21:41:18 36° WSW 21:41:23 36° WSW
Cosmos 405 Rocket 4.5 21:40:00 10° N 21:41:40 26° N 21:41:40 26° N
Cosmos 2082 Rocket 2.6 21:42:05 39° WSW 21:43:55 57° WNW 21:49:27 10° NNE
CZ-2C R/B 4.2 21:40:22 10° NNE 21:43:43 49° NE 21:43:43 49° NE
Timation 1 Rocket 4.4 21:47:15 51° SW 21:48:43 71° WNW 21:54:42 10° NNE
SL-08 R/B 4.4 21:43:51 10° N 21:50:20 84° W 21:51:17 67° S
Cosmos 1932 4.4 21:46:13 10° NNW 21:52:41 84° WSW 21:53:27 71° SSE
ISS -1.0 21:55:15 10° NW 21:56:12 18° NW 21:56:12 18° NW
COSMOS 2406 3.4 21:59:10 60° WSW 21:59:59 68° WNW 22:05:41 10° NNE
Okean 3 Rocket 4.2 21:55:43 10° N 21:59:09 53° N 21:59:09 53° N
Landsat 5 4.5 21:57:17 10° NNE 22:00:10 43° NNE 22:00:10 43° NNE
USA 59 Rocket 2.1 22:10:24 17° N 22:10:24 17° N 22:11:22 10° NNE
MetOp-A 4.1 22:10:43 70° WNW 22:10:43 70° WNW 22:15:30 10° NNW
Cosmos 2333 Rocket 3.2 22:09:43 10° N 22:14:58 36° ENE 22:15:54 34° ENE
Cosmos 1151 Rocket 4.4 22:19:28 32° NE 22:19:28 32° NE 22:21:58 10° NNE
ALOS 2 3.5 22:19:44 47° NNE 22:19:44 47° NNE 22:23:03 10° N
Cosmos 2219 Rocket 4.0 22:26:15 10° N 22:30:41 23° NE 22:32:39 19° E
Meteor 2-4 Rocket 3.7 22:30:52 76° WNW 22:30:52 76° WNW 22:36:37 10° N
Meteor 1-27 Rocket 4.5 22:30:54 41° W 22:31:30 42° WNW 22:36:46 10° N
Cosmos 1727 Rocket 4.4 22:34:09 48° E 22:34:13 48° E 22:40:09 10° NNE
SL-24 R/B - RUBIN 2 4.3 22:37:02 87° S 22:37:07 89° ESE 22:43:08 10° NNE
Cosmos 1680 Rocket 4.4 22:39:24 40° ENE 22:39:24 40° ENE 22:43:16 10° NNE
Cosmos 1980 Rocket 4.0 22:35:52 10° WNW 22:39:12 18° W 22:39:12 18° W
Sich 1 4.3 22:35:40 10° NNW 22:38:23 38° NNW 22:38:23 38° NNW
SL-16 R/B 2.3 22:46:00 10° NNW 22:51:04 66° WNW 22:51:04 66° WNW
Cosmos 2322 Rocket 2.2 22:54:58 10° NNW 23:00:24 77° NNE 23:00:24 77° NNE
Cosmos 1633 Rocket 4.5 22:57:45 10° N 23:00:47 33° NE 23:00:47 33° NE
Cosmos 1066 Rocket 4.4 23:04:56 62° WNW 23:04:56 62° WNW 23:10:29 10° N
Cosmos 1459 Rocket 4.4 23:00:29 10° N 23:06:27 51° ENE 23:07:06 49° E
Cosmos 1000 Rocket 4.5 23:08:01 66° E 23:08:08 66° E 23:14:15 10° NNE
Meteor 2-10 Rocket 4.1 23:05:14 10° N 23:10:55 56° ENE 23:11:09 56° E
GP-B 4.2 23:13:29 10° N 23:16:31 40° NNW 23:16:31 40° NNW
Exosat Rocket 4.3 23:14:40 10° NNW 23:18:24 44° WNW 23:18:24 44° WNW
Cosmos 2360 Rocket 2.2 23:14:36 10° NNW 23:19:47 75° NW 23:19:47 75° NW
Cosmos 2173 Rocket 4.0 23:14:54 10° N 23:21:16 71° E 23:21:47 68° ESE
ATLAS 3B R/B 4.0 23:17:16 20° W 23:21:58 40° NW 23:29:15 10° NNE
USA 229 DEB 4.3 23:20:46 35° W 23:22:40 45° NW 23:29:02 10° NNE
USA 229 4.3 23:20:54 36° W 23:22:45 45° NW 23:29:07 10° NNE
ASTEX 1 4.0 23:21:55 10° N 23:26:06 51° NW 23:26:06 51° NW
CENTAUR R/B 3.3 23:18:22 10° NNW 23:26:54 79° NE 23:31:24 36° SE
In-Cosmos 22 4.2 23:31:00 83° NW 23:31:00 83° NW 23:36:41 10° N
Cosmos 2123 Rocket 4.0 23:30:43 66° ESE 23:31:12 69° E 23:37:30 10° NNE
CZ-2C R/B 4.0 23:27:17 10° NNE 23:32:47 43° E 23:32:58 43° ESE
Cosmos 2112 Rocket 4.4 23:41:12 56° WNW 23:41:12 56° WNW 23:46:08 10° N
